Regional Weather Roundup
Issued by NWS Sioux Falls, SD

Home | Current Version | Previous Version | Graphics & Text | Print | Product List | Glossary Off
Versions: 1 2 3 4 5 6 7 8 9 10 11 12 13 14 15 16 17 18 19 20 21 22 23 24 25 26 27 28 29 30 31 32 33 34 35 36 37 38 39 40 41 42 43 44 45 46 47 48 49 50

000
ASUS43 KFSD 260710
RWRFSD

WEATHER ROUNDUP FOR SE SOUTH DAKOTA/SW MINNESOTA/NW IOWA
NATIONAL WEATHER SERVICE SIOUX FALLS SD
200 AM CDT WED JUL 26 2017

NOTE: "FAIR" INDICATES FEW OR NO CLOUDS BELOW 12,000 FEET WITH NO
SIGNIFICANT WEATHER AND OR OBSTRUCTIONS TO VISIBILITY.


SDZ038>040-050-052>070-260800-
SOUTHEAST SOUTH DAKOTA

CITY           SKY/WX    TMP DP  RH WIND       PRES   REMARKS
BROOKINGS      LGT RAIN  69  67  93 N7        30.00R
CHAMBERLAIN    CLOUDY    72  72  98 NE6       29.99R
HURON          CLOUDY    70  69  97 N6        29.96S
MADISON        FAIR      68  68 100 NE9       29.99R
MITCHELL       CLOUDY    74  67  78 S12       29.92R
SIOUX FALLS    LGT RAIN  72  72 100 S3        29.98F
WINNER         FAIR      72  68  87 SE6       29.98R
YANKTON        CLOUDY    71  70  96 CALM      30.01R FOG
$$

MNZ071-072-080-081-089-090-097-098-260800-
SOUTHWEST MINNESOTA

CITY           SKY/WX    TMP DP  RH WIND       PRES   REMARKS
FAIRMONT       CLOUDY    76  73  91 S6        29.98F
JACKSON        CLOUDY    77  72  83 CALM      30.00R
LUVERNE        CLOUDY    70  64  83 NE6       29.99F
MARSHALL       LGT RAIN  71  67  87 NW9       29.97F
MONTEVIDEO     CLOUDY    72  64  78 CALM      29.99R
PIPESTONE      DRIZZLE   70  64  83 SE8       29.97F
REDWOOD FALLS  CLOUDY    74  70  87 MISG      29.99R
TRACY          RAIN      73  66  80 SW18G31   29.97F
WINDOM         RAIN      73  70  88 W13G26    30.00R
WORTHINGTON    LGT RAIN  71  68  90 W12       30.01S
$$

IAZ001>003-012>014-020>022-031-032-NEZ013-014-SDZ071-260800-
NORTHWEST IOWA

CITY           SKY/WX    TMP DP  RH WIND       PRES   REMARKS
DENISON        CLOUDY    79  75  89 S13       29.99F
ESTHERVILLE    CLOUDY    74  74 100 S7        29.98S
ORANGE CITY    LGT RAIN  77  72  83 N9        29.99F
SHELDON        CLOUDY    79  68  69 NW9G15    29.98F
SIOUX CITY     CLOUDY    81  73  76 N7        29.96R
SPENCER        CLOUDY    77  73  87 W3        29.99R
STORM LAKE     CLOUDY    77  73  88 S12       29.97F
$$

ABBREVIATIONS USED IN REMARKS
   TC - TEMPERATURE IN CELSIUS
  WCI - WIND CHILL INDEX
   HX - HEAT INDEX
  VSB - VISIBILITY




USA.gov is the U.S. government's official web portal to all federal, state and local government web resources and services.